UTTI current weather conditions

sailwx.info

Wind from 120 at 4 knots

Air temperature -3.0° C
Visibility: greater than 4.9 NM
Dewpoint -3.0° C

Last reported at 2014-Nov-23 14:20 UTC.
Time now 2014-Nov-23 16:11 UTC

Location: N 60°54' E 026°56'.
View on Google Maps.

See reports from other nearby stations

  
Tides and Currents Weather Stations Pressure Air Temp Water Temp Dewpoint Dewpoint Depression Visibility Wind Speed Wind Dir Waves Ship Positions
date/time (UTC)wind fromknots sea level pressurealtimeterstation pressurevisibilityair tempwater tempwave heightnotes
2014-Nov-23 15:50 110 4 4.9-3.0
2014-Nov-23 15:20 120 4 4.9-3.0
2014-Nov-23 14:50 110 5 4.9-3.0
2014-Nov-23 14:20 120 4 4.9-3.0
2014-Nov-23 13:50 110 4 4.3-3.0
2014-Nov-23 13:20 110 3 4.3-3.0
2014-Nov-23 12:50 150 2 4.9-3.0
2014-Nov-23 12:20 160 1 4.9-2.0
2014-Nov-23 11:50 170 1 4.3-2.0
2014-Nov-23 11:20 080 2 2.7-3.0
2014-Nov-23 10:50 2.7-3.0
2014-Nov-23 10:20 2.7-3.0
2014-Nov-23 09:50 220 0 3.2-3.0
2014-Nov-23 09:20 220 2 2.7-3.0
2014-Nov-23 08:50 360 0 2.2-3.0
2014-Nov-23 08:20 280 2 1.5-3.0 Light snow. Mist.
2014-Nov-23 07:50 240 4 4.9-3.0
2014-Nov-23 07:20 210 2 5.4-3.0
2014-Nov-23 06:50 5.4-3.0
2014-Nov-23 06:20 010 1 5.4-3.0
2014-Nov-23 05:50 010 1 5.4-3.0
2014-Nov-23 05:20 010 2 5.4-3.0
2014-Nov-23 04:50 340 1 5.4-3.0
2014-Nov-23 04:20 260 1 5.4-2.0
2014-Nov-23 03:50 310 1 5.4-2.0
2014-Nov-23 03:20 320 2 5.4-2.0
2014-Nov-23 02:50 290 2 5.4-2.0
2014-Nov-23 02:20 290 2 5.4-2.0
2014-Nov-23 01:50 310 1 5.4-2.0
2014-Nov-23 01:20 270 2 5.4-2.0
2014-Nov-23 00:50 310 1 5.4-2.0
2014-Nov-23 00:20 330 2 5.4-2.0
2014-Nov-22 23:50 070 0 5.4-2.0
2014-Nov-22 23:20 5.4-2.0
2014-Nov-22 22:50 210 1 5.4-2.0
2014-Nov-22 22:20 200 1 5.4-2.0
2014-Nov-22 21:50 190 1 5.4-2.0
2014-Nov-22 21:20 200 1 5.4-2.0
2014-Nov-22 20:50 220 0 5.4-2.0
2014-Nov-22 20:20 260 3 5.4-2.0
2014-Nov-22 19:50 260 2 5.4-2.0
2014-Nov-22 19:20 240 2 5.4-2.0
2014-Nov-22 18:50 240 1 5.4-2.0
2014-Nov-22 18:20 260 2 5.4-2.0
2014-Nov-22 17:50 5.4-2.0
2014-Nov-22 17:20 310 2 5.4-2.0
2014-Nov-22 16:50 310 1 5.4-2.0
2014-Nov-22 16:20 290 2 5.4-1.0
2014-Nov-22 15:50 300 2 5.4-1.0
2014-Nov-22 15:20 320 2 3.2-1.0
2014-Nov-22 14:50 300 0 1.8-1.0
2014-Nov-22 14:20 300 1 2.3-1.0 Mist.
2014-Nov-22 13:50 330 0 3.2-1.0
2014-Nov-22 13:20 300 3 2.3-1.0 Mist.
2014-Nov-22 12:50 280 2 1.8-1.0
2014-Nov-22 12:20 260 2 2.7-1.0
2014-Nov-22 11:50 240 2 2.2-1.0 Mist.
2014-Nov-22 11:20 2.1-1.0 Mist.
2014-Nov-22 10:50 2.3-1.0 Mist.
2014-Nov-22 10:20 1.1-1.0 Mist.
2014-Nov-22 09:50 1.3-1.0
2014-Nov-22 09:20 310 1 0.4-2.0 Freezing fog.
2014-Nov-22 08:50 320 0 0.3-2.0
2014-Nov-22 08:20 310 1 0.2-2.0 Light snow showers. Freezing fog.
2014-Nov-22 07:50 1.5-2.0
2014-Nov-22 07:20 060 1 1.3-2.0 Light snow. Mist.
2014-Nov-22 06:50 360 0 0.6-2.0
2014-Nov-22 06:20 040 1 0.4-2.0 Light snow. Freezing fog.
2014-Nov-22 05:50 010 0 1.8-2.0
2014-Nov-22 05:20 350 1 2.3-2.0 Light snow. Mist.
2014-Nov-22 04:50 040 1 1.7-2.0 Light snow.
2014-Nov-22 04:20 100 2 1.1-2.0
2014-Nov-22 03:50 090 4 1.0-2.0
2014-Nov-22 03:20 090 3 1.0-2.0 Light snow showers. Mist.
2014-Nov-22 02:50 090 2 0.8-2.0
2014-Nov-22 02:20 090 4 1.1-3.0 Mist.
2014-Nov-22 01:50 090 5 0.9-3.0
2014-Nov-22 01:20 090 5 1.1-3.0 Mist.
2014-Nov-22 00:50 090 4 1.2-3.0
2014-Nov-22 00:20 090 5 1.6-3.0 Mist.
2014-Nov-21 23:50 100 4 1.8-3.0
2014-Nov-21 23:20 100 5 4.9-3.0
2014-Nov-21 22:50 100 6 4.9-3.0
2014-Nov-21 22:20 100 6 5.4-3.0 Light snow.
2014-Nov-21 21:50 100 6 2.1-4.0
2014-Nov-21 21:20 100 8 1.1-4.0 Light snow.
2014-Nov-21 20:50 100 9 1.2-4.0 Light snow.
2014-Nov-21 20:20 090 7 1.3-3.0 Snow.
2014-Nov-21 19:50 090 8 0.9-3.0 Snow.
2014-Nov-21 19:20 080 8 0.4-3.0 Snow.
2014-Nov-21 18:50 080 8 0.7-3.0 Snow.
2014-Nov-21 18:20 070 6 0.5-3.0 Snow.
2014-Nov-21 17:50 060 5 0.3-3.0 Heavy snow.
2014-Nov-21 17:20 070 5 0.4-3.0 Snow.
2014-Nov-21 16:50 070 5 0.6-3.0 Snow.
2014-Nov-21 16:20 060 5 0.6-4.0 Snow.